www.pogodaiklimat.ru

Погода и климат >> Архив погоды >> Россия >> Камчатский край >> Тиличики


ПОГОДА в Тиличиках

  • Прогноз погоды в Тиличиках
  • Монитор погоды в Тиличиках
  • Климат города

АРХИВ ПОГОДЫ в Тиличиках

Время (UTC), дата Ветер
(напр.,м/с)
 
Видим.   Явления Облачность Т
(С)
Тd
(С)
f
(%)
Тe
(С)
Тes
(С)
Комфортность P
(гПа)
Po
(гПа)
Тmin
(С)
Tmax
(С)
R
(мм)
R24
(мм)
S
(см)
21 9.07 С 2
{13}
50 км {ливн. осадки} 10/6 1000 м
[Sc Ac trans Ci fib]
+14.9 +10.4 74 +15 +16 1012.2 1001.6 +12.5 2
03 10.07 ЮЗ 2
{10}
50 км 10/8 1000 м
[Sc Ac trans]
+15.3 +12.2 82 +15 +16 1011.7 1001.1
12 10.07 штиль 0 20 км 10/10 300 м
[St]
+11.6 +10.9 95 +11 +11 1010.2 999.6
15 10.07 штиль 0 4000 м дымка 10/10 300 м
[St]
+10.6 +10.0 96 +10 +10 1008.4 997.7
18 10.07 штиль 0 4000 м дымка 10/10 200 м
[St]
+11.3 +10.8 97 +11 +11 1007.2 996.5
09 11.07 СЗ 6-10
{13}
50 км 3/3 1000 м
[Sc Ci fib]
+11.7 +8.2 79 +9 +9 1003.1 992.5 +13.0 15
21 11.07 С 6-10
{21}
50 км 8/8 1000 м
[Sc]
+12.2 +5.1 62 +10 +10 1008.9 998.3 +7.9
06 12.07 штиль 0
{11}
50 км 1/1 1000 м
[Sc]
+18.5 +5.9 44 +19 +24 1008.8 998.4
12 12.07 штиль 0 20 км ясно +11.6 +4.5 62 +11 +11 1010.3 999.6
15 12.07 штиль 0 50 км ясно +10.0 +3.5 64 +10 +10 1010.3 999.5
18 12.07 штиль 0 50 км ясно +9.7 +5.4 75 +9 +10 1011.0 1000.2
03 13.07 ЮЗ 4 50 км 1/1 1000 м
[Cu hum]
+14.5 +8.5 67 +13 +20 1011.5 1000.9
06 13.07 ЮЗ 6 50 км 1/1 1000 м
[Cu hum]
+12.4 +7.7 73 +10 +11 1012.5 1001.8
12 13.07 штиль 0 20 км 8/6 300 м
[St Ci fib]
+8.7 +6.1 84 +8 +8 1014.6 1003.8
15 13.07 штиль 0 50 км 6/1 300 м
[St Ci fib]
+6.1 +5.0 93 +5 +5 1014.9 1003.9
18 13.07 штиль 0 50 км 10/10 1000 м
[Sc]
+7.4 +5.4 87 +7 +7 1015.2 1004.3
03 14.07 Ю 4 50 км 10/8 1000 м
[Sc Ac trans]
+10.9 +8.5 85 +8 +9 1014.9 1004.1
06 14.07 Ю 1 50 км 9/9 1000 м
[Sc]
+11.0 +8.8 86 +11 +11 1014.8 1004.0
12 14.07 штиль 0 20 км 10/10 300 м
[St]
+10.5 +9.4 93 +10 +10 1015.3 1004.5
15 14.07 штиль 0 20 км 10/10 300 м
[St]
+10.2 +9.3 94 +9 +9 1015.5 1004.7
18 14.07 штиль 0 20 км 10/8 300 м
[St Ac trans]
+10.7 +9.8 94 +10 +10 1015.8 1005.1
03 15.07 ЮЗ 1 50 км 6/0
[Ci fib]
+16.1 +11.7 75 +17 +28 1015.8 1005.2
06 15.07 штиль 0 50 км 8/4 300 м
[St Ci fib]
+13.9 +11.8 87 +13 +16 1015.7 1005.0
15 15.07 штиль 0 2000 м дымка 10/10 200 м
[St]
+11.1 +10.5 96 +10 +10 1016.7 1005.9
18 15.07 штиль 0 500 м туман 10/10 100 м
[St]
+10.9 +10.4 97 +10 +10 1016.9 1006.1
03 16.07 штиль 0 1000 м дымка 10/10 200 м
[St]
+12.5 +11.4 93 +12 +12 1015.2 1004.5
06 16.07 штиль 0 200 м туман ?/? +11.5 +10.9 96 +11 +11 1014.3 1003.6
09 16.07 штиль 0 50 м слабая морось {туман} туман ?/? +10.7 +10.2 97 +10 +10 1014.3 1003.5 +13.9 0.0

 

Местоположение метеостанции Тиличики (Камчатский край, Россия): широта 60.43 долгота 166.00 высота над уровнем моря 89 м.

В архиве по умолчанию представлена погода в Тиличиках за последнюю неделю. Архивные данные за месяц целиком и за предыдущие месяцы, начиная с января 2011 года, Вы можете получить, выбрав интересующий диапазон дат из раскрывающегося списка и нажав кнопку "Ввод!".


*Определитесь, кто Вы:
робот инопланетянин человек

Внимание! Время в таблицах - всемирное. Для получения местного времени необходимо прибавить поправку, которая в Тиличиках равна 12 ч.

Смотрите также архив погоды в соседних городах и на ближайших метеорологических станциях:

Погода в Чемурнауте (Камчатский край, Россия) (167 км)
Погода в Апуке (Камчатский край, Россия) (198 км)
Погода в Оссоре (Камчатский край, Россия) (214 км)
Погода в Каменском (Камчатский край, Россия) (228 км)
Погода в Слаутном (Камчатский край, Россия) (322 км)
Погода на Мысе Озерном (Камчатский край, Россия) (348 км)
Погода в Палане (Камчатский край, Россия) (373 км)
Погода в Эвенске (Магаданская область, Россия) (400 км)
Погода в Верхне-Пенжино (Камчатский край, Россия) (432 км)
Погода в Усть-Воямполке (Камчатский край, Россия) (445 км)

Пояснения к столбцам:

Ветер - указаны скорость ветра в м/с - средняя за 10 мин, порывы в срок и между сроками (в фигурных скобках) и направление, откуда дует ветер: С - северный, СВ - северо-восточный, В - восточный, ЮВ - юго-восточный, Ю - южный, ЮЗ - юго-западный, З - западный, СЗ - северо-западный.
Видимость - горизонтальная дальность видимости в метрах или километрах. При видимости от 1 до 10 км при отсутствии осадков обычно наблюдается дымка, при ухудшении видимости до 1 км и менее - туман. В сухую погоду видимость может ухудшаться дымом, пылью или мглою.
Явления - указаны атмосферные явления, наблюдавшиеся в срок или в последний час перед сроком; фигурными скобками обозначены явления, наблюдавшиеся между сроками (за 1-3 часа до срока); квадратными скобками обозначены град или гололедные отложения с указанием их диаметра в мм.
Облачность - указаны через наклонную черту общая и нижняя облачность в баллах и высота нижней границы облаков в метрах; квадратными скобками обозначены формы облаков: Ci - перистые, Cs - перисто-слоистые, Cc - перисто-кучевые, Ac - высококучевые, As - высокослоистые, Sc - слоисто-кучевые, Ns - слоисто-дождевые, Cu - кучевые, Cb - кучево-дождевые. Подробнее классификацию облаков см. в Атласе облаков (PDF).
T - Температура воздуха - температура, измеренная на высоте 2 м над землей.
Td - Температура точки росы - температура, при понижении до которой содержащийся в воздухе водяной пар достигнет насыщения.
f - Относительная влажность воздуха - влажноcть воздуха, измеренная на высоте 2 м над землей.
Te - Эффективная температура - температура, которую ощущает одетый по сезону человек в тени. Характеристика душности погоды. При расчете учитывается влияние влажности воздуха и скорости ветра на теплоощущения человека.
Tes - Эффективная температура на солнце - температура, которую ощущает человек, с поправкой на солнечный нагрев. Характеристика знойности погоды. Зависит от высоты солнца над горизонтом, облачности и скорости ветра. Ночью, в пасмурную погоду, а также при ветре 12 м/с и более поправка равна нулю.
P - Атмосферное давление - приведенное к уровню моря атмосферное давление.
Po - Атмосферное давление - измеренное на уровне метеостанции атмосферное давление.
Tmin - Минимальная температура - минимум температуры воздуха на высоте 2 м над землей.
Tmax - Максимальная температура - максимум температуры воздуха на высоте 2 м над землей.
R - Количество осадков - Количество выпавших осадков за период времени, мм. При наведении курсора мыши на число - период времени, за который выпало указанное количество осадков.
R24 - Количество осадков - Количество выпавших осадков за 24 часа, мм.
S - Снежный покров - Высота снежного покрова, см. При наведении курсора мыши на число - состояние снежного покрова и степень покрытия местности в баллах.